Location: Niverville
(49.6028°N, 97.0419°W)
Time: 18:29:26
(UTC-05:00)

ISS - All Passes

Search period start: 19 April 2018 00:00
Search period end: 29 April 2018 00:00
Orbit: 403 x 406 km, 51.6° (Epoch: 20 April)

Date Brightness Start Highest point End Pass type
(mag) Time Alt. Az. Time Alt. Az. Time Alt. Az.
19 Apr - 11:41:13 10° SW 11:44:17 38° SSE 11:47:23 10° E daylight
19 Apr - 13:17:25 10° W 13:20:41 69° NNW 13:23:58 10° ENE daylight
19 Apr - 14:54:06 10° WNW 14:57:23 64° N 15:00:39 10° E daylight
19 Apr - 16:30:39 10° WNW 16:33:51 47° SSW 16:37:01 10° SE daylight
19 Apr - 18:09:28 10° SW 18:09:40 10° SW 18:09:55 10° SW daylight
20 Apr - 10:49:28 10° SSW 10:52:12 25° SE 10:54:57 10° E daylight
20 Apr - 12:25:08 10° WSW 12:28:25 87° NNW 12:31:44 10° ENE daylight
20 Apr - 14:01:50 10° WNW 14:05:04 58° N 14:08:20 10° E daylight
20 Apr - 15:38:22 10° WNW 15:41:39 71° SSW 15:44:56 10° ESE daylight
20 Apr - 17:15:31 10° W 17:17:43 17° SW 17:19:54 10° S daylight
21 Apr - 09:58:07 10° S 10:00:10 16° SE 10:02:14 10° E daylight
21 Apr - 11:32:57 10° WSW 11:36:12 68° SSE 11:39:28 10° ENE daylight
21 Apr - 13:09:31 10° W 13:12:46 58° N 13:16:00 10° ENE daylight
21 Apr - 14:46:07 10° WNW 14:49:25 84° NNE 14:52:43 10° ESE daylight
21 Apr - 16:22:51 10° W 16:25:40 26° SW 16:28:28 10° SSE daylight
22 Apr - 10:40:51 10° SW 10:44:00 45° SSE 10:47:09 10° ENE daylight
22 Apr - 12:17:10 10° W 12:20:26 65° N 12:23:42 10° ENE daylight
22 Apr - 13:53:51 10° WNW 13:57:07 68° N 14:00:24 10° E daylight
22 Apr - 15:30:25 10° W 15:33:32 41° SSW 15:36:39 10° SE daylight
23 Apr - 09:48:58 10° SSW 09:51:50 29° SE 09:54:45 10° E daylight
23 Apr - 11:24:51 10° WSW 11:28:08 79° NNW 11:31:25 10° ENE daylight
23 Apr - 13:01:32 10° WNW 13:04:48 59° N 13:08:03 10° E daylight
23 Apr - 14:38:04 10° WNW 14:41:20 62° SSW 14:44:35 10° ESE daylight
23 Apr - 16:15:30 10° WSW 16:17:18 14° SW 16:19:08 10° S daylight
24 Apr - 08:57:23 10° S 08:59:45 19° SE 09:02:07 10° E daylight
24 Apr - 10:32:34 10° WSW 10:35:51 77° SSE 10:39:07 10° ENE daylight
24 Apr - 12:09:11 10° W 12:12:26 58° N 12:15:42 10° E daylight
24 Apr - 13:45:46 10° WNW 13:49:04 88° SSW 13:52:22 10° ESE daylight
24 Apr - 15:22:36 10° W 15:25:15 22° SW 15:27:52 10° SSE daylight
25 Apr - 08:06:35 10° SSE 08:07:42 11° SE 08:08:49 10° ESE daylight
25 Apr - 09:40:24 10° SW 09:43:35 52° SSE 09:46:48 10° ENE daylight
25 Apr - 11:16:49 10° W 11:20:04 62° N 11:23:21 10° ENE daylight
25 Apr - 12:53:28 10° WNW 12:56:45 72° NNE 13:00:02 10° E daylight
25 Apr - 14:30:04 10° W 14:33:06 35° SSW 14:36:08 10° SE daylight
26 Apr - 08:48:23 10° SW 08:51:22 34° SSE 08:54:23 10° E daylight
26 Apr - 10:24:26 10° W 10:27:43 73° NNW 10:31:00 10° ENE daylight
26 Apr - 12:01:07 10° WNW 12:04:23 61° N 12:07:39 10° E daylight
26 Apr - 13:37:40 10° WNW 13:40:53 54° SSW 13:44:06 10° SE daylight
26 Apr - 15:15:31 10° WSW 15:16:47 12° SW 15:18:03 10° SSW daylight
27 Apr - 07:56:39 10° SSW 07:59:13 22° SE 08:01:49 10° E daylight
27 Apr - 09:32:06 10° WSW 09:35:23 86° SSE 09:38:40 10° ENE daylight
27 Apr - 11:08:45 10° W 11:12:00 57° N 11:15:15 10° E daylight
27 Apr - 12:45:19 10° WNW 12:48:36 79° SSW 12:51:53 10° ESE daylight
27 Apr - 14:22:17 10° W 14:24:42 19° SW 14:27:07 10° S daylight
28 Apr - 07:05:24 10° S 07:07:07 14° SE 07:08:50 10° ESE daylight
28 Apr - 08:39:50 10° SW 08:43:04 61° SSE 08:46:19 10° ENE daylight
28 Apr - 10:16:21 10° W 10:19:36 60° N 10:22:51 10° ENE daylight
28 Apr - 11:52:59 10° WNW 11:56:16 78° NNE 11:59:33 10° ESE daylight
28 Apr - 13:29:37 10° W 13:32:33 30° SSW 13:35:28 10° SSE daylight
